When you browse on this site, cookies collect data to enhance your experience and personalize the content and advertising you see.
Visit our Privacy Policy to learn more. By continuing to use the site, you agree to this use of cookies and data.
  • In United Kingdom
  • List of Countries
  • For 7 days
  • Water Temperature
  • Satellite Maps
  • Weather Map
  • Weather Widgets
  • user-avatar
    Login

    Hourly Weather Antwerp

    Today, 27 May, Monday

    Time Temperature Precipitation Wind Pressure Humidity
    00:00 +14°C° 0.5 mm 5 mps 757 mmHg 93%
    01:00 +14°C° 0.2 mm 4 mps 757 mmHg 93%
    02:00 +14°C° 0.2 mm 3 mps 756 mmHg 93%
    03:00 +15°C° 0.2 mm 2 mps 756 mmHg 93%
    04:00 +15°C° 0 mm 2 mps 756 mmHg 90%
    05:00 +15°C° 0 mm 2 mps 756 mmHg 87%
    06:00 +15°C° 0 mm 2 mps 757 mmHg 84%
    07:00 +16°C° 0 mm 3 mps 757 mmHg 75%
    08:00 +17°C° 0 mm 3 mps 757 mmHg 66%
    09:00 +18°C° 0 mm 3 mps 757 mmHg 56%
    10:00 +19°C° 0 mm 4 mps 757 mmHg 54%
    11:00 +19°C° 0 mm 4 mps 757 mmHg 52%
    12:00 +19°C° 0 mm 4 mps 756 mmHg 50%
    13:00 +19°C° 0 mm 5 mps 756 mmHg 52%
    14:00 +19°C° 0 mm 5 mps 756 mmHg 54%
    15:00 +19°C° 0 mm 5 mps 756 mmHg 56%
    16:00 +18°C° 0 mm 4 mps 756 mmHg 57%
    17:00 +18°C° 0 mm 4 mps 756 mmHg 59%
    18:00 +17°C° 0 mm 3 mps 756 mmHg 61%
    19:00 +16°C° 0.1 mm 3 mps 756 mmHg 68%
    20:00 +14°C° 0.1 mm 3 mps 756 mmHg 74%
    21:00 +13°C° 0.1 mm 3 mps 755 mmHg 80%
    22:00 +12°C° 0.1 mm 3 mps 755 mmHg 83%
    23:00 +12°C° 0.1 mm 3 mps 755 mmHg 85%

    Tomorrow, 28 May, Tuesday

    Time Temperature Precipitation Wind Pressure Humidity
    00:00 +12°C° 0.1 mm 3 mps 755 mmHg 88%
    01:00 +12°C° 0.1 mm 3 mps 755 mmHg 88%
    02:00 +11°C° 0.1 mm 3 mps 755 mmHg 88%
    03:00 +11°C° 0.1 mm 3 mps 754 mmHg 88%
    04:00 +11°C° 0.1 mm 3 mps 755 mmHg 86%
    05:00 +12°C° 0.1 mm 3 mps 755 mmHg 84%
    06:00 +12°C° 0.1 mm 3 mps 755 mmHg 82%
    07:00 +13°C° 0.7 mm 3 mps 755 mmHg 78%
    08:00 +14°C° 0.7 mm 4 mps 755 mmHg 75%
    09:00 +15°C° 0.7 mm 4 mps 755 mmHg 71%
    10:00 +15°C° 0.8 mm 4 mps 756 mmHg 68%
    11:00 +17°C° 0.8 mm 4 mps 756 mmHg 66%
    12:00 +18°C° 0.8 mm 4 mps 756 mmHg 63%
    13:00 +18°C° 1.4 mm 4 mps 757 mmHg 65%
    14:00 +17°C° 1.4 mm 4 mps 757 mmHg 66%
    15:00 +17°C° 1.4 mm 4 mps 757 mmHg 67%
    16:00 +17°C° 0.6 mm 3 mps 758 mmHg 69%
    17:00 +16°C° 0.6 mm 3 mps 758 mmHg 71%
    18:00 +16°C° 0.6 mm 3 mps 759 mmHg 73%
    19:00 +14°C° 0 mm 3 mps 760 mmHg 76%
    20:00 +13°C° 0 mm 2 mps 760 mmHg 78%
    21:00 +12°C° 0 mm 2 mps 761 mmHg 81%
    22:00 +10°C° 0 mm 2 mps 761 mmHg 82%
    23:00 +9°C° 0 mm 2 mps 762 mmHg 83%

    Day after tomorrow, 29 May, Wednesday

    Time Temperature Precipitation Wind Pressure Humidity
    00:00 +9°C° 0 mm 3 mps 762 mmHg 85%
    01:00 +8°C° 0 mm 2 mps 762 mmHg 85%
    02:00 +8°C° 0 mm 2 mps 762 mmHg 86%
    03:00 +7°C° 0 mm 2 mps 762 mmHg 87%
    04:00 +8°C° 0 mm 2 mps 762 mmHg 86%
    05:00 +9°C° 0 mm 3 mps 762 mmHg 84%
    06:00 +10°C° 0 mm 3 mps 762 mmHg 83%
    07:00 +12°C° 0 mm 3 mps 762 mmHg 76%
    08:00 +14°C° 0 mm 3 mps 762 mmHg 70%
    09:00 +17°C° 0 mm 4 mps 762 mmHg 64%
    10:00 +18°C° 0.2 mm 4 mps 761 mmHg 61%
    11:00 +19°C° 0.2 mm 5 mps 761 mmHg 58%
    12:00 +20°C° 0.2 mm 5 mps 761 mmHg 55%
    13:00 +19°C° 0.2 mm 6 mps 761 mmHg 59%
    14:00 +17°C° 0.2 mm 6 mps 760 mmHg 64%
    15:00 +16°C° 0.2 mm 7 mps 760 mmHg 68%
    16:00 +15°C° 0.2 mm 7 mps 760 mmHg 74%
    17:00 +14°C° 0.2 mm 7 mps 759 mmHg 79%
    18:00 +13°C° 0.2 mm 6 mps 759 mmHg 84%
    19:00 +13°C° 0.3 mm 6 mps 759 mmHg 87%
    20:00 +13°C° 0.3 mm 6 mps 759 mmHg 90%
    21:00 +13°C° 0.3 mm 6 mps 759 mmHg 92%
    22:00 +14°C° 0.2 mm 6 mps 760 mmHg 93%
    23:00 +14°C° 0.2 mm 5 mps 760 mmHg 93%

    30 May, Thursday

    Time Temperature Precipitation Wind Pressure Humidity
    00:00 +14°C° 0.2 mm 5 mps 760 mmHg 93%
    01:00 +14°C° 0.1 mm 5 mps 760 mmHg 93%
    02:00 +14°C° 0.1 mm 5 mps 760 mmHg 93%
    03:00 +14°C° 0.1 mm 5 mps 761 mmHg 94%
    04:00 +14°C° 0.1 mm 4 mps 761 mmHg 93%
    05:00 +14°C° 0.1 mm 4 mps 761 mmHg 93%
    06:00 +14°C° 0.1 mm 4 mps 762 mmHg 92%
    07:00 +15°C° 0.1 mm 4 mps 762 mmHg 90%
    08:00 +15°C° 0.1 mm 4 mps 762 mmHg 89%
    09:00 +17°C° 0.1 mm 4 mps 762 mmHg 87%
    10:00 +17°C° 0.4 mm 4 mps 762 mmHg 88%
    11:00 +17°C° 0.4 mm 4 mps 763 mmHg 90%
    12:00 +15°C° 0.4 mm 4 mps 763 mmHg 91%
    13:00 +16°C° 0.1 mm 5 mps 763 mmHg 89%
    14:00 +16°C° 0.1 mm 5 mps 763 mmHg 87%
    15:00 +17°C° 0.1 mm 5 mps 763 mmHg 85%
    16:00 +17°C° 0.2 mm 5 mps 763 mmHg 86%
    17:00 +16°C° 0.2 mm 5 mps 763 mmHg 87%
    18:00 +16°C° 0.2 mm 5 mps 763 mmHg 89%
    19:00 +15°C° 0 mm 5 mps 763 mmHg 88%
    20:00 +15°C° 0 mm 6 mps 764 mmHg 88%
    21:00 +15°C° 0 mm 6 mps 764 mmHg 87%
    22:00 +14°C° 0.1 mm 6 mps 764 mmHg 88%
    23:00 +14°C° 0.1 mm 6 mps 764 mmHg 90%

    31 May, Friday

    Time Temperature Precipitation Wind Pressure Humidity
    00:00 +14°C° 0.1 mm 6 mps 764 mmHg 91%
    01:00 +14°C° 0.1 mm 5 mps 764 mmHg 92%
    02:00 +14°C° 0.1 mm 5 mps 764 mmHg 92%
    03:00 +14°C° 0.1 mm 5 mps 764 mmHg 93%
    04:00 +14°C° 0.1 mm 4 mps 764 mmHg 91%
    05:00 +14°C° 0.1 mm 4 mps 765 mmHg 90%
    06:00 +14°C° 0.1 mm 4 mps 765 mmHg 89%
    07:00 +14°C° 0 mm 4 mps 766 mmHg 85%
    08:00 +14°C° 0 mm 4 mps 766 mmHg 82%
    09:00 +14°C° 0 mm 4 mps 767 mmHg 79%
    10:00 +15°C° 0 mm 4 mps 767 mmHg 74%
    11:00 +17°C° 0 mm 4 mps 768 mmHg 69%
    12:00 +17°C° 0 mm 3 mps 768 mmHg 64%
    13:00 +17°C° 0 mm 3 mps 769 mmHg 63%
    14:00 +17°C° 0 mm 3 mps 769 mmHg 62%
    15:00 +17°C° 0 mm 3 mps 769 mmHg 61%
    16:00 +17°C° 0 mm 3 mps 770 mmHg 62%
    17:00 +17°C° 0 mm 3 mps 770 mmHg 62%
    18:00 +16°C° 0 mm 2 mps 770 mmHg 63%
    19:00 +15°C° 0 mm 2 mps 770 mmHg 67%
    20:00 +13°C° 0 mm 2 mps 771 mmHg 70%
    21:00 +12°C° 0 mm 2 mps 771 mmHg 74%
    22:00 +10°C° 0 mm 2 mps 771 mmHg 75%
    23:00 +10°C° 0 mm 2 mps 771 mmHg 77%

    1 June, Saturday

    Time Temperature Precipitation Wind Pressure Humidity
    00:00 +9°C° 0 mm 2 mps 771 mmHg 78%
    01:00 +9°C° 0 mm 2 mps 771 mmHg 81%
    02:00 +8°C° 0 mm 2 mps 771 mmHg 83%
    03:00 +8°C° 0 mm 2 mps 771 mmHg 85%
    04:00 +9°C° 0 mm 2 mps 771 mmHg 82%
    05:00 +10°C° 0 mm 2 mps 771 mmHg 79%
    06:00 +12°C° 0 mm 2 mps 771 mmHg 76%
    07:00 +14°C° 0 mm 2 mps 771 mmHg 69%
    08:00 +16°C° 0 mm 2 mps 771 mmHg 62%
    09:00 +17°C° 0 mm 2 mps 771 mmHg 54%
    10:00 +19°C° 0 mm 2 mps 771 mmHg 51%
    11:00 +21°C° 0 mm 1 mps 771 mmHg 47%
    12:00 +22°C° 0 mm 1 mps 770 mmHg 43%
    13:00 +23°C° 0 mm 1 mps 770 mmHg 43%
    14:00 +23°C° 0 mm 1 mps 770 mmHg 43%
    15:00 +24°C° 0 mm 1 mps 769 mmHg 43%
    16:00 +23°C° 0 mm 1 mps 769 mmHg 48%
    17:00 +23°C° 0 mm 1 mps 769 mmHg 53%
    18:00 +22°C° 0 mm 1 mps 769 mmHg 58%
    19:00 +20°C° 0 mm 1 mps 769 mmHg 62%
    20:00 +19°C° 0 mm 1 mps 769 mmHg 66%
    21:00 +16°C° 0 mm 1 mps 770 mmHg 70%
    22:00 +15°C° 0 mm 1 mps 770 mmHg 70%
    23:00 +15°C° 0 mm 1 mps 770 mmHg 71%
    Show more